Time,TemperatureF,DewpointF,PressureIn,WindDirection,WindDirectionDegrees,WindSpeedMPH,WindSpeedGustMPH,Humidity,HourlyPrecipIn,Conditions,Clouds,dailyrainin,SoftwareType,DateUTC
2013-02-03 00:12:00,42.9,39.0,30.05,WNW,294,0.0,3.0,87,0.00,,,0.00,weatherlink.com 1.10,2013-02-03 05:12:00,
2013-02-03 00:27:00,43.2,39.0,30.05,WNW,283,1.0,2.0,86,0.00,,,0.00,weatherlink.com 1.10,2013-02-03 05:27:00,
2013-02-03 00:42:00,43.6,39.0,30.04,West,262,2.0,2.0,85,0.00,,,0.00,weatherlink.com 1.10,2013-02-03 05:42:00,
2013-02-03 00:57:00,43.7,39.0,30.05,WNW,295,0.0,5.0,84,0.00,,,0.00,weatherlink.com 1.10,2013-02-03 05:57:00,
2013-02-03 01:12:00,43.4,39.0,30.05,West,266,2.0,5.0,83,0.00,,,0.00,weatherlink.com 1.10,2013-02-03 06:12:00,
2013-02-03 01:42:00,43.0,38.0,30.01,WNW,302,1.0,3.0,82,0.00,,,0.00,weatherlink.com 1.10,2013-02-03 06:42:00,
2013-02-03 01:57:00,43.2,37.0,30.01,WNW,290,0.0,4.0,80,0.00,,,0.00,weatherlink.com 1.10,2013-02-03 06:57:00,
2013-02-03 02:12:00,43.1,37.0,29.99,WNW,293,0.0,3.0,80,0.00,,,0.00,weatherlink.com 1.10,2013-02-03 07:12:00,
2013-02-03 02:27:00,43.8,38.0,30.00,West,264,2.0,5.0,79,0.00,,,0.00,weatherlink.com 1.10,2013-02-03 07:27:00,
2013-02-03 02:43:00,44.8,38.0,29.99,West,266,2.0,4.0,76,0.00,,,0.00,weatherlink.com 1.10,2013-02-03 07:43:00,
2013-02-03 02:57:00,44.7,38.0,29.99,WNW,285,1.0,3.0,76,0.00,,,0.00,weatherlink.com 1.10,2013-02-03 07:57:00,
2013-02-03 03:12:00,44.6,37.0,29.98,West,267,1.0,3.0,76,0.00,,,0.00,weatherlink.com 1.10,2013-02-03 08:12:00,
2013-02-03 03:27:00,44.5,37.0,29.98,West,276,2.0,3.0,76,0.00,,,0.00,weatherlink.com 1.10,2013-02-03 08:27:00,
2013-02-03 03:42:00,44.2,37.0,29.97,West,260,1.0,2.0,77,0.00,,,0.00,weatherlink.com 1.10,2013-02-03 08:42:00,
2013-02-03 03:57:00,43.6,37.0,29.97,West,269,0.0,2.0,78,0.00,,,0.00,weatherlink.com 1.10,2013-02-03 08:57:00,
2013-02-03 04:13:00,42.7,37.0,29.97,West,269,0.0,1.0,79,0.00,,,0.00,weatherlink.com 1.10,2013-02-03 09:13:00,
2013-02-03 04:28:00,41.9,37.0,29.97,WSW,252,0.0,1.0,81,0.00,,,0.00,weatherlink.com 1.10,2013-02-03 09:28:00,
2013-02-03 04:43:00,41.4,36.0,29.97,WNW,299,0.0,1.0,82,0.00,,,0.00,weatherlink.com 1.10,2013-02-03 09:43:00,
2013-02-03 04:58:00,40.5,36.0,29.96,WNW,300,0.0,0.0,83,0.00,,,0.00,weatherlink.com 1.10,2013-02-03 09:58:00,
2013-02-03 05:13:00,39.5,35.0,29.96,WNW,300,0.0,0.0,84,0.00,,,0.00,weatherlink.com 1.10,2013-02-03 10:13:00,
2013-02-03 05:28:00,39.5,36.0,29.96,WNW,299,0.0,0.0,86,0.00,,,0.00,weatherlink.com 1.10,2013-02-03 10:28:00,
2013-02-03 05:43:00,39.9,36.0,29.96,WNW,301,0.0,1.0,86,0.00,,,0.00,weatherlink.com 1.10,2013-02-03 10:43:00,
2013-02-03 05:58:00,39.9,36.0,29.96,West,271,0.0,1.0,86,0.00,,,0.00,weatherlink.com 1.10,2013-02-03 10:58:00,
2013-02-03 06:13:00,39.4,36.0,29.96,West,280,0.0,1.0,86,0.00,,,0.00,weatherlink.com 1.10,2013-02-03 11:13:00,
2013-02-03 06:28:00,39.0,36.0,29.96,NW,326,0.0,1.0,87,0.00,,,0.00,weatherlink.com 1.10,2013-02-03 11:28:00,
2013-02-03 06:43:00,38.8,35.0,29.96,NW,304,1.0,1.0,87,0.00,,,0.00,weatherlink.com 1.10,2013-02-03 11:43:00,
2013-02-03 06:58:00,38.5,35.0,29.96,WNW,288,0.0,1.0,88,0.00,,,0.00,weatherlink.com 1.10,2013-02-03 11:58:00,
2013-02-03 07:13:00,38.0,35.0,29.97,WNW,288,0.0,0.0,88,0.00,,,0.00,weatherlink.com 1.10,2013-02-03 12:13:00,
2013-02-03 07:28:00,38.0,35.0,29.97,WNW,288,0.0,1.0,89,0.00,,,0.00,weatherlink.com 1.10,2013-02-03 12:28:00,
2013-02-03 07:43:00,39.3,36.0,29.96,WNW,288,0.0,1.0,88,0.00,,,0.00,weatherlink.com 1.10,2013-02-03 12:43:00,
2013-02-03 07:58:00,41.1,38.0,29.97,WNW,290,0.0,1.0,88,0.00,,,0.00,weatherlink.com 1.10,2013-02-03 12:58:00,
2013-02-03 08:13:00,41.9,38.0,29.98,WNW,290,0.0,1.0,87,0.00,,,0.00,weatherlink.com 1.10,2013-02-03 13:13:00,
2013-02-03 08:28:00,42.2,38.0,29.98,West,263,0.0,2.0,86,0.00,,,0.00,weatherlink.com 1.10,2013-02-03 13:28:00,
2013-02-03 08:43:00,42.4,38.0,29.97,WNW,286,0.0,2.0,85,0.00,,,0.00,weatherlink.com 1.10,2013-02-03 13:43:00,
2013-02-03 08:58:00,44.4,40.0,29.97,WNW,294,2.0,3.0,83,0.00,,,0.00,weatherlink.com 1.10,2013-02-03 13:58:00,
2013-02-03 09:13:00,45.2,39.0,29.97,West,274,2.0,4.0,80,0.00,,,0.00,weatherlink.com 1.10,2013-02-03 14:13:00,
2013-02-03 09:28:00,46.5,40.0,29.97,West,266,0.0,6.0,77,0.00,,,0.00,weatherlink.com 1.10,2013-02-03 14:28:00,
2013-02-03 09:43:00,46.2,39.0,29.98,WSW,256,3.0,5.0,77,0.00,,,0.00,weatherlink.com 1.10,2013-02-03 14:43:00,
2013-02-03 09:58:00,45.9,39.0,29.97,WNW,285,1.0,3.0,77,0.00,,,0.00,weatherlink.com 1.10,2013-02-03 14:58:00,
2013-02-03 10:13:00,46.1,39.0,29.97,ESE,112,0.0,6.0,77,0.00,,,0.00,weatherlink.com 1.10,2013-02-03 15:13:00,
2013-02-03 10:28:00,46.8,39.0,29.96,NNE,31,1.0,3.0,75,0.00,,,0.00,weatherlink.com 1.10,2013-02-03 15:28:00,
2013-02-03 10:43:00,47.0,38.0,29.96,WNW,285,0.0,6.0,71,0.00,,,0.00,weatherlink.com 1.10,2013-02-03 15:43:00,
2013-02-03 10:58:00,47.8,38.0,29.95,NW,307,2.0,3.0,70,0.00,,,0.00,weatherlink.com 1.10,2013-02-03 15:58:00,
2013-02-03 11:13:00,47.4,38.0,29.96,WNW,290,1.0,4.0,69,0.00,,,0.00,weatherlink.com 1.10,2013-02-03 16:13:00,
2013-02-03 11:29:00,48.2,38.0,29.95,WNW,301,1.0,5.0,68,0.00,,,0.00,weatherlink.com 1.10,2013-02-03 16:29:00,
2013-02-03 11:44:00,46.7,36.0,29.95,SSW,210,1.0,5.0,67,0.00,,,0.00,weatherlink.com 1.10,2013-02-03 16:44:00,
2013-02-03 11:58:00,46.5,37.0,29.94,NW,305,1.0,4.0,69,0.00,,,0.00,weatherlink.com 1.10,2013-02-03 16:58:00,
2013-02-03 12:13:00,46.7,37.0,29.94,West,276,4.0,4.0,69,0.00,,,0.00,weatherlink.com 1.10,2013-02-03 17:13:00,
2013-02-03 12:29:00,46.3,37.0,29.93,NW,319,0.0,5.0,70,0.00,,,0.00,weatherlink.com 1.10,2013-02-03 17:29:00,
2013-02-03 12:43:00,47.7,38.0,29.92,South,176,2.0,6.0,70,0.00,,,0.00,weatherlink.com 1.10,2013-02-03 17:43:00,
2013-02-03 12:58:00,47.9,37.0,29.92,WNW,297,1.0,6.0,67,0.00,,,0.00,weatherlink.com 1.10,2013-02-03 17:58:00,
2013-02-03 13:14:00,47.4,37.0,29.90,NW,305,2.0,6.0,68,0.00,,,0.00,weatherlink.com 1.10,2013-02-03 18:14:00,
2013-02-03 13:29:00,47.9,38.0,29.90,NW,315,1.0,4.0,68,0.00,,,0.00,weatherlink.com 1.10,2013-02-03 18:29:00,
2013-02-03 13:44:00,49.0,38.0,29.89,NW,314,2.0,4.0,65,0.00,,,0.00,weatherlink.com 1.10,2013-02-03 18:44:00,
2013-02-03 13:59:00,49.4,37.0,29.88,NE,47,2.0,5.0,63,0.00,,,0.00,weatherlink.com 1.10,2013-02-03 18:59:00,
2013-02-03 14:14:00,50.1,37.0,29.88,SSW,193,1.0,5.0,61,0.00,,,0.00,weatherlink.com 1.10,2013-02-03 19:14:00,
2013-02-03 14:29:00,50.6,37.0,29.87,SSW,211,2.0,7.0,61,0.00,,,0.00,weatherlink.com 1.10,2013-02-03 19:29:00,
2013-02-03 14:44:00,49.8,36.0,29.88,West,281,0.0,3.0,60,0.00,,,0.00,weatherlink.com 1.10,2013-02-03 19:44:00,
2013-02-03 14:59:00,48.8,35.0,29.88,West,264,3.0,5.0,60,0.00,,,0.00,weatherlink.com 1.10,2013-02-03 19:59:00,
2013-02-03 15:14:00,48.4,36.0,29.88,West,270,0.0,4.0,63,0.00,,,0.00,weatherlink.com 1.10,2013-02-03 20:14:00,
2013-02-03 15:29:00,49.4,36.0,29.88,West,276,3.0,5.0,61,0.00,,,0.00,weatherlink.com 1.10,2013-02-03 20:29:00,
2013-02-03 15:44:00,48.6,36.0,29.89,SSW,205,2.0,3.0,61,0.00,,,0.00,weatherlink.com 1.10,2013-02-03 20:44:00,
2013-02-03 15:59:00,49.1,35.0,29.89,SW,235,1.0,4.0,59,0.00,,,0.00,weatherlink.com 1.10,2013-02-03 20:59:00,
2013-02-03 16:14:00,49.3,34.0,29.89,NW,314,1.0,5.0,56,0.00,,,0.00,weatherlink.com 1.10,2013-02-03 21:14:00,
2013-02-03 16:29:00,49.4,33.0,29.90,NW,306,2.0,6.0,53,0.00,,,0.00,weatherlink.com 1.10,2013-02-03 21:29:00,
2013-02-03 16:44:00,49.7,33.0,29.90,NE,37,5.0,6.0,53,0.00,,,0.00,weatherlink.com 1.10,2013-02-03 21:44:00,
2013-02-03 16:59:00,48.8,32.0,29.91,ESE,118,1.0,5.0,53,0.00,,,0.00,weatherlink.com 1.10,2013-02-03 21:59:00,
2013-02-03 17:14:00,48.1,32.0,29.91,West,267,0.0,4.0,55,0.00,,,0.00,weatherlink.com 1.10,2013-02-03 22:14:00,
2013-02-03 17:29:00,47.1,32.0,29.91,West,277,0.0,3.0,57,0.00,,,0.00,weatherlink.com 1.10,2013-02-03 22:29:00,
2013-02-03 17:44:00,45.7,32.0,29.91,South,186,0.0,0.0,60,0.00,,,0.00,weatherlink.com 1.10,2013-02-03 22:44:00,
2013-02-03 17:59:00,44.5,32.0,29.91,South,187,0.0,0.0,63,0.00,,,0.00,weatherlink.com 1.10,2013-02-03 22:59:00,
2013-02-03 18:14:00,43.2,32.0,29.92,South,187,0.0,0.0,66,0.00,,,0.00,weatherlink.com 1.10,2013-02-03 23:14:00,
2013-02-03 18:29:00,42.4,33.0,29.93,South,187,0.0,0.0,69,0.00,,,0.00,weatherlink.com 1.10,2013-02-03 23:29:00,
2013-02-03 18:44:00,41.7,33.0,29.93,South,187,0.0,0.0,70,0.00,,,0.00,weatherlink.com 1.10,2013-02-03 23:44:00,
2013-02-03 18:59:00,41.1,33.0,29.93,South,187,0.0,1.0,72,0.00,,,0.00,weatherlink.com 1.10,2013-02-03 23:59:00,
2013-02-03 19:14:00,41.2,33.0,29.94,SSW,193,0.0,1.0,72,0.00,,,0.00,weatherlink.com 1.10,2013-02-04 00:14:00,
2013-02-03 19:29:00,40.9,33.0,29.94,West,271,0.0,1.0,72,0.00,,,0.00,weatherlink.com 1.10,2013-02-04 00:29:00,
2013-02-03 19:44:00,40.5,33.0,29.94,WNW,300,0.0,1.0,74,0.00,,,0.00,weatherlink.com 1.10,2013-02-04 00:44:00,
2013-02-03 19:59:00,40.3,34.0,29.94,WNW,300,0.0,1.0,77,0.00,,,0.00,weatherlink.com 1.10,2013-02-04 00:59:00,
2013-02-03 20:14:00,39.9,33.0,29.95,NW,304,0.0,1.0,77,0.00,,,0.00,weatherlink.com 1.10,2013-02-04 01:14:00,
2013-02-03 20:29:00,39.9,34.0,29.95,NW,305,0.0,1.0,79,0.00,,,0.00,weatherlink.com 1.10,2013-02-04 01:29:00,
2013-02-03 20:44:00,39.7,34.0,29.95,NW,309,0.0,1.0,80,0.00,,,0.00,weatherlink.com 1.10,2013-02-04 01:44:00,
2013-02-03 20:59:00,39.7,34.0,29.96,NW,307,0.0,1.0,81,0.00,,,0.00,weatherlink.com 1.10,2013-02-04 01:59:00,
2013-02-03 21:14:00,39.5,34.0,29.97,NW,307,0.0,1.0,81,0.00,,,0.00,weatherlink.com 1.10,2013-02-04 02:14:00,
2013-02-03 21:29:00,39.3,34.0,29.97,NW,308,0.0,1.0,82,0.00,,,0.00,weatherlink.com 1.10,2013-02-04 02:29:00,
2013-02-03 21:44:00,39.2,34.0,29.97,NW,316,0.0,1.0,82,0.00,,,0.00,weatherlink.com 1.10,2013-02-04 02:44:00,
2013-02-03 21:59:00,39.1,34.0,29.97,NW,307,1.0,1.0,83,0.00,,,0.00,weatherlink.com 1.10,2013-02-04 02:59:00,
2013-02-03 22:14:00,38.5,34.0,29.99,NW,321,1.0,3.0,84,0.00,,,0.00,weatherlink.com 1.10,2013-02-04 03:14:00,
2013-02-03 22:29:00,37.7,33.0,29.99,WNW,295,0.0,1.0,83,0.00,,,0.00,weatherlink.com 1.10,2013-02-04 03:29:00,
2013-02-03 22:44:00,36.8,32.0,29.99,WNW,295,0.0,1.0,84,0.00,,,0.00,weatherlink.com 1.10,2013-02-04 03:44:00,
2013-02-03 22:59:00,36.3,32.0,29.99,WNW,295,0.0,0.0,84,0.00,,,0.00,weatherlink.com 1.10,2013-02-04 03:59:00,
2013-02-03 23:14:00,37.1,32.0,30.00,NW,310,0.0,2.0,82,0.00,,,0.00,weatherlink.com 1.10,2013-02-04 04:14:00,
2013-02-03 23:29:00,37.2,32.0,30.01,NW,311,0.0,1.0,80,0.00,,,0.00,weatherlink.com 1.10,2013-02-04 04:29:00,
2013-02-03 23:59:00,36.4,31.0,30.01,NW,315,0.0,1.0,80,0.00,,,0.00,weatherlink.com 1.10,2013-02-04 04:59:00,